Flag for Seychelles Weather past 2 weeks in Victoria, Seychelles

Now
79 °F

Partly sunny.


Feels Like: 82 °F
Forecast: 76 / 80 °F
Wind: 2 mph from North

Location: National Airport

Current Time: Oct 21, 2014 at 11:31:40 AM

Latest Report: Oct 21, 2014 at 11:00 AM


Visibility: N/A

Pressure: 29.92 "Hg

Humidity: 89%

Dew point: 75 °F

Location of VictoriaLocation

Historic Weather in Victoria — Graph

°F

Victoria temperature yesterday

Maximum temperature yesterday: 86 °F (at 3:00 PM)
Minimum temperature yesterday: 77 °F (at 12:00 AM)
Average temperature yesterday: 81 °F

Past Weeks' High & Low Weather Summary

 TemperatureHumidityPressure
High88 °F (Oct 8, 11:00 AM)100% (Oct 17, 6:00 AM)29.95 "Hg (Oct 17, 6:00 AM)
Low36 °F (Oct 17, 6:00 AM)62% (Oct 18, 12:00 PM)29.77 "Hg (Oct 20, 3:00 PM)
Average82 °F78%29.87 "Hg
* Reported Oct 6 10:00 AM — Oct 21 10:00 AM, Victoria, Weather by CustomWeather, © 2014

Note: Actual official high and low records may vary slightly from our data, if they occured in-between our weather recording intervals... More about our weather records

Advertising

Victoria weather history for previous 24 hours

 ConditionsComfort  
Time TempWeatherWind HumidityBarometerVisibility
10:00 AM
Oct 21
77 °FPartly sunny.6 mph94%29.95 "HgN/A
9:00 AM75 °FPartly sunny.6 mph100%29.92 "HgN/A
8:00 AM75 °FSprinkles. Partly sunny.No wind94%29.92 "HgN/A
7:00 AM73 °FSprinkles. Partly sunny.2 mph100%29.89 "Hg3 mi
6:00 AM75 °FSprinkles. Partly sunny.7 mph94%29.89 "Hg2 mi
5:00 AM73 °FLots of rain. Passing clouds.7 mph100%29.86 "Hg1 mi
4:00 AM73 °FRain showers. Passing clouds.7 mph100%29.86 "HgN/A
3:00 AM77 °FRain showers. Passing clouds.13 mph94%29.83 "Hg3 mi
2:00 AM81 °FPassing clouds.6 mph84%29.83 "HgN/A
1:00 AM81 °FPassing clouds.8 mph84%29.86 "HgN/A
12:00 AM81 °FPassing clouds.12 mph84%29.86 "HgN/A
11:00 PM
Oct 20
81 °FSprinkles. Passing clouds.12 mph79%29.89 "HgN/A
10:00 PM82 °FPassing clouds.12 mph79%29.89 "HgN/A
9:00 PM81 °FThunderstorms. Passing clouds.5 mph84%29.89 "HgN/A
8:00 PM82 °FPassing clouds.9 mph74%29.86 "HgN/A
7:00 PM82 °FPassing clouds.14 mph74%29.86 "HgN/A
6:00 PM82 °FPassing clouds.14 mph79%29.83 "HgN/A
5:00 PM82 °FScattered clouds.12 mph79%29.80 "HgN/A
4:00 PM84 °FPassing clouds.12 mph74%29.80 "HgN/A
3:00 PM86 °FPassing clouds.14 mph70%29.77 "HgN/A
2:00 PM84 °FPassing clouds.13 mph74%29.80 "HgN/A
1:00 PM84 °FPartly sunny.15 mph70%29.83 "HgN/A
12:00 PM84 °FBroken clouds.13 mph74%29.86 "HgN/A
11:00 AM84 °FBroken clouds.12 mph70%29.86 "HgN/A
Weather by CustomWeather, © 2014

See weather overviewHow to use our weather pages